Weather History for Hays, KS

Change the Weather History Date:

Wednesday, November 21, 2012

  Actual Average Record
Temperature  
Mean Temperature 55 °F -  
Max Temperature 73 °F 49 °F 73 °F (2012)
Min Temperature 37 °F 26 °F 12 °F (2008)
Degree Days  
Heating Degree Days 10    
Growing Degree Days 5 (Base 50)    
Moisture  
Dew Point 37 °F    
Average Humidity 51    
Maximum Humidity 87    
Minimum Humidity 23    
Precipitation  
Precipitation 0.00 in - - ()
Sea Level Pressure  
Sea Level Pressure 29.99 in    
Wind  
Wind Speed 12 mph (SSW)    
Max Wind Speed 31 mph    
Max Gust Speed 41 mph    
Visibility 10 miles    
Events      
Averages and records for this station are not official NWS values.
T = Trace of Precipitation, MM = Missing Value Source: NWS Daily Summary

Daily Weather History Graph

Daily Weather History Graph

Search for Another Location

Airport:

Trip Planner

Search our weather history database for the weather conditions in past years. The results will help you decide how hot, cold, wet, or windy it might be!

Date:

Astronomy

Nov. 21, 2012 Rise Set
Actual Time 7:26 AM CST 5:19 PM CST
Civil Twilight 6:57 AM CST 5:48 PM CST
Nautical Twilight 6:25 AM CST 6:20 PM CST
Astronomical Twilight 5:53 AM CST 6:52 PM CST
Moon 1:33 PM CST 12:51 AM CST
Length of Visible Light 10h 50m
Length of Day
9h 52m
First Quarter, 62% of the Moon is Illuminated
Nov 21
First Quarter
Nov 28
Full
Dec 6
Last Quarter
Dec 13
New
Dec 19
First Quarter

Hourly Weather History & Observations

Time (CST) Temp. Windchill Dew Point Humidity Pressure Visibility Wind Dir Wind Speed Gust Speed Precip Events Conditions
12:15 AM 48.2 °F - 35.6 °F 62% 30.14 in 10.0 mi SSW 9.2 mph - N/A   Clear
12:35 AM 46.4 °F 43.5 °F 33.8 °F 62% 30.13 in 10.0 mi SSW 5.8 mph - N/A   Clear
12:55 AM 46.4 °F 44.3 °F 33.8 °F 62% 30.13 in 10.0 mi SSW 4.6 mph - N/A   Clear
1:15 AM 44.6 °F - 33.8 °F 66% 30.13 in 10.0 mi Calm Calm - N/A   Clear
1:35 AM 44.6 °F - 33.8 °F 66% 30.12 in 10.0 mi Calm Calm - N/A   Clear
1:55 AM 46.4 °F 42.9 °F 35.6 °F 66% 30.12 in 10.0 mi SSW 6.9 mph - N/A   Clear
2:15 AM 46.4 °F 41.9 °F 37.4 °F 71% 30.12 in 10.0 mi SSW 9.2 mph - N/A   Clear
2:35 AM 46.4 °F 41.5 °F 37.4 °F 71% 30.12 in 10.0 mi SSW 10.4 mph - N/A   Clear
2:55 AM 44.6 °F 39.7 °F 37.4 °F 76% 30.12 in 10.0 mi SSW 9.2 mph - N/A   Clear
3:15 AM 44.6 °F 40.2 °F 35.6 °F 71% 30.11 in 10.0 mi SSW 8.1 mph - N/A   Clear
3:35 AM 42.8 °F 38.0 °F 35.6 °F 76% 30.12 in 10.0 mi SW 8.1 mph - N/A   Clear
3:55 AM 42.8 °F 38.6 °F 35.6 °F 76% 30.11 in 10.0 mi SSW 6.9 mph - N/A   Clear
4:15 AM 42.8 °F 39.3 °F 35.6 °F 76% 30.11 in 10.0 mi SSW 5.8 mph - N/A   Clear
4:35 AM 42.8 °F 38.6 °F 35.6 °F 76% 30.10 in 10.0 mi SSW 6.9 mph - N/A   Clear
4:55 AM 39.2 °F 37.0 °F 33.8 °F 81% 30.10 in 10.0 mi South 3.5 mph - N/A   Clear
5:15 AM 37.4 °F 32.8 °F 32.0 °F 81% 30.10 in 10.0 mi SSE 5.8 mph - N/A   Clear
5:35 AM 37.4 °F 34.9 °F 33.8 °F 87% 30.09 in 10.0 mi South 3.5 mph - N/A   Clear
5:55 AM 41.0 °F 37.1 °F 35.6 °F 81% 30.09 in 10.0 mi SW 5.8 mph - N/A   Clear
6:15 AM 42.8 °F 41.1 °F 35.6 °F 76% 30.09 in 10.0 mi SW 3.5 mph - N/A   Clear
6:35 AM 41.0 °F - 35.6 °F 81% 30.09 in 10.0 mi Calm Calm - N/A   Clear
6:55 AM 39.2 °F 35.9 °F 33.8 °F 81% 30.08 in 10.0 mi ESE 4.6 mph - N/A   Clear
7:15 AM 44.6 °F 38.1 °F 39.2 °F 81% 30.07 in 10.0 mi SSW 13.8 mph - N/A   Clear
7:35 AM 44.6 °F 38.8 °F 37.4 °F 76% 30.08 in 10.0 mi SSW 11.5 mph - N/A   Clear
7:55 AM 44.6 °F 39.2 °F 39.2 °F 81% 30.08 in 10.0 mi SSW 10.4 mph - N/A   Clear
8:15 AM 46.4 °F 41.1 °F 39.2 °F 76% 30.09 in 10.0 mi SSW 11.5 mph - N/A   Clear
8:35 AM 48.2 °F - 39.2 °F 71% 30.08 in 10.0 mi South 11.5 mph - N/A   Clear
8:55 AM 50.0 °F - 41.0 °F 71% 30.08 in 10.0 mi South 12.7 mph - N/A   Clear
9:15 AM 51.8 °F - 42.8 °F 71% 30.08 in 10.0 mi South 9.2 mph - N/A   Clear
9:35 AM 55.4 °F - 44.6 °F 67% 30.08 in 10.0 mi SSW 13.8 mph - N/A   Clear
9:55 AM 59.0 °F - 44.6 °F 59% 30.07 in 10.0 mi SSW 20.7 mph 28.8 mph N/A   Clear
10:15 AM 62.6 °F - 44.6 °F 52% 30.07 in 10.0 mi SSW 21.9 mph 27.6 mph N/A   Clear
10:35 AM 64.4 °F - 44.6 °F 49% 30.06 in 10.0 mi SSW 23.0 mph 27.6 mph N/A   Clear
10:55 AM 66.2 °F - 42.8 °F 43% 30.05 in 10.0 mi SSW 21.9 mph 31.1 mph N/A   Clear
11:15 AM 69.8 °F - 39.2 °F 33% 30.05 in 10.0 mi SSW 25.3 mph 32.2 mph N/A   Clear
11:35 AM 69.8 °F - 39.2 °F 33% 30.03 in 10.0 mi SSW 24.2 mph 33.4 mph N/A   Clear
11:55 AM 69.8 °F - 39.2 °F 33% 30.01 in 10.0 mi South 23.0 mph 31.1 mph N/A   Clear
12:15 PM 69.8 °F - 37.4 °F 31% 30.00 in 10.0 mi SSW 24.2 mph 33.4 mph N/A   Clear
12:35 PM 71.6 °F - 39.2 °F 31% 29.97 in 10.0 mi South 29.9 mph 35.7 mph N/A   Clear
12:55 PM 71.6 °F - 37.4 °F 29% 29.96 in 10.0 mi South 27.6 mph 33.4 mph N/A   Clear
1:15 PM 71.6 °F - 35.6 °F 27% 29.94 in 10.0 mi South 29.9 mph 38.0 mph N/A   Clear
1:35 PM 73.4 °F - 35.6 °F 25% 29.93 in 10.0 mi SSW 31.1 mph 40.3 mph N/A   Clear
1:55 PM 71.6 °F - 35.6 °F 27% 29.92 in 10.0 mi South 29.9 mph 41.4 mph N/A   Clear
2:15 PM 73.4 °F - 35.6 °F 25% 29.90 in 10.0 mi South 31.1 mph 39.1 mph N/A   Clear
2:35 PM 73.4 °F - 35.6 °F 25% 29.89 in 10.0 mi South 31.1 mph 38.0 mph N/A   Clear
2:55 PM 73.4 °F - 35.6 °F 25% 29.89 in 10.0 mi South 24.2 mph 33.4 mph N/A   Clear
3:15 PM 73.4 °F - 35.6 °F 25% 29.89 in 10.0 mi SSW 29.9 mph 35.7 mph N/A   Clear
3:35 PM 73.4 °F - 35.6 °F 25% 29.89 in 10.0 mi South 27.6 mph 35.7 mph N/A   Clear
3:55 PM 73.4 °F - 33.8 °F 23% 29.88 in 10.0 mi SSW 28.8 mph 34.5 mph N/A   Clear
4:15 PM 73.4 °F - 33.8 °F 23% 29.88 in 10.0 mi SSW 23.0 mph 27.6 mph N/A   Clear
4:35 PM 71.6 °F - 33.8 °F 25% 29.88 in 10.0 mi SSW 19.6 mph 28.8 mph N/A   Clear
4:55 PM 69.8 °F - 33.8 °F 27% 29.88 in 10.0 mi SSW 17.3 mph 24.2 mph N/A   Clear
5:15 PM 69.8 °F - 33.8 °F 27% 29.88 in 10.0 mi South 17.3 mph 23.0 mph N/A   Clear
5:35 PM 66.2 °F - 33.8 °F 30% 29.88 in 10.0 mi South 16.1 mph - N/A   Clear
5:55 PM 66.2 °F - 33.8 °F 30% 29.87 in 10.0 mi South 15.0 mph - N/A   Clear
6:15 PM 64.4 °F - 33.8 °F 32% 29.87 in 10.0 mi South 16.1 mph 20.7 mph N/A   Clear
6:35 PM 62.6 °F - 33.8 °F 34% 29.87 in 10.0 mi South 15.0 mph - N/A   Clear
6:55 PM 62.6 °F - 33.8 °F 34% 29.86 in 10.0 mi South 15.0 mph - N/A   Clear
7:15 PM 62.6 °F - 33.8 °F 34% 29.87 in 10.0 mi South 15.0 mph - N/A   Clear
7:35 PM 62.6 °F - 33.8 °F 34% 29.87 in 10.0 mi South 16.1 mph - N/A   Clear
7:55 PM 62.6 °F - 33.8 °F 34% 29.86 in 10.0 mi South 18.4 mph 24.2 mph N/A   Clear
8:15 PM 62.6 °F - 35.6 °F 37% 29.86 in 10.0 mi South 16.1 mph 23.0 mph N/A   Clear
8:35 PM 62.6 °F - 35.6 °F 37% 29.86 in 10.0 mi South 15.0 mph - N/A   Clear
8:55 PM 62.6 °F - 35.6 °F 37% 29.86 in 10.0 mi South 16.1 mph 20.7 mph N/A   Clear
9:15 PM 60.8 °F - 35.6 °F 39% 29.86 in 10.0 mi SSW 11.5 mph - N/A   Clear
9:35 PM 60.8 °F - 35.6 °F 39% 29.86 in 10.0 mi South 10.4 mph - N/A   Clear
9:55 PM 60.8 °F - 35.6 °F 39% 29.85 in 10.0 mi South 11.5 mph - N/A   Clear
10:15 PM 60.8 °F - 37.4 °F 42% 29.85 in 10.0 mi South 12.7 mph 18.4 mph N/A   Clear
10:35 PM 59.0 °F - 37.4 °F 45% 29.85 in 10.0 mi SSW 10.4 mph - N/A   Clear
10:55 PM 57.2 °F - 37.4 °F 48% 29.83 in 10.0 mi SSW 13.8 mph - N/A   Clear
11:15 PM 57.2 °F - 37.4 °F 48% 29.82 in 10.0 mi South 12.7 mph - N/A   Clear
11:35 PM 55.4 °F - 37.4 °F 51% 29.82 in 10.0 mi South 9.2 mph - N/A   Clear
11:55 PM 55.4 °F - 39.2 °F 54% 29.81 in 10.0 mi South 12.7 mph - N/A   Clear